[[[{"header":{"parameterUnit":"kt","parameterCategory":2,"dx":1,"dy":1,"la1":30.253999710083008,"la2":30.299108505249023,"lo1":-89.0895004272461,"lo2":-89.04439544677734,"nx":28,"ny":28,"refTime":"2022-10-01T21:00:00:Z","depth":0,"parameterNumber":1,"parameterNumberName":"U-component_of_WINDS"},"data":[-3.2377,-3.2564,-3.2549,-3.2755,-3.2776,-3.2916,-3.2961,-3.3017,-3.3058,-3.3222,-3.3314,-3.3318,-3.3353,-3.346,-3.3559,-3.3558,-3.3605,-3.3681,-3.3669,-3.3335,-3.3289,-3.3244,-3.32,-3.369,-3.369,-3.4018,-3.4022,-3.4024,-3.2134,-3.2157,-3.2261,-3.2352,-3.2442,-3.2358,-3.2423,-3.2505,-3.2631,-3.2683,-3.2772,-3.2915,-3.3026,-3.3036,-3.3141,-3.3229,-3.3198,-3.3259,-3.3256,-3.3264,-3.2905,-3.2859,-3.3283,-3.3283,-3.3283,-3.3283,-3.3283,-3.3283,-3.1689,-3.1801,-3.1847,-3.196,-3.2001,-3.2062,-3.2167,-3.2169,-3.2271,-3.2378,-3.2339,-3.2482,-3.2532,-3.265,-3.2686,-3.2798,-3.2728,-3.2792,-3.2809,-3.2827,-3.2851,-3.2387,-3.2814,-3.2813,-3.2812,-3.2811,-3.281,0,-3.1361,-3.134,-3.1438,-3.1533,-3.1614,-3.1686,-3.1749,-3.1813,-3.1765,-3.1851,-3.1975,-3.2044,-3.2181,-3.2297,-3.2391,-3.2416,-3.2343,-3.2331,-3.2376,-3.2402,-3.2412,-3.2414,-3.1836,-3.2321,-3.2316,-3.2313,-3.2311,-3.2309,-3.0916,-3.1047,-3.1087,-3.1158,-3.1189,-3.1304,-3.137,-3.1317,-3.139,-3.146,-3.1562,-3.1676,-3.1766,-3.1967,-3.197,-3.2072,-3.2039,-3.2226,-3.2054,-3.2071,-3.2049,-3.2045,-3.206,-3.2264,-3.227,-3.2274,-3.2278,0,-3.0668,-3.0642,-3.084,-3.0866,-3.0876,-3.1017,-3.104,-3.115,-3.1138,-3.1289,-3.132,-3.1306,-3.1429,-3.14,-3.1534,-3.1516,-3.1752,-3.1713,-3.1735,-3.1728,-3.1898,-3.1885,-3.2441,-3.2513,-3.1999,-3.2003,-3.2008,0,-3.0282,-3.0456,-3.0407,-3.0523,-3.0714,-3.0656,-3.0848,-3.0858,-3.0898,-3.1015,-3.0923,-3.1036,-3.0981,-3.109,-3.1063,-3.1249,-3.1272,-3.1272,-3.1265,-3.1285,-3.1286,-3.1329,-3.1308,-3.1234,-3.1231,-3.1228,-3.1226,0,-2.9902,-3.0077,-3.0265,-3.0301,-3.0347,-3.0437,-3.0461,-3.0505,-3.057,-3.065,-3.0692,-3.0789,-3.0844,-3.0921,-3.0887,-3.0772,-3.1112,-3.0947,-3.1112,-3.1114,-3.1195,-3.1192,-3.1685,-3.1223,-3.1222,-3.1221,-3.122,0,-2.9588,-2.9668,-2.9943,-2.9979,-3.0028,-3.0151,-3.0243,-3.0341,-3.0395,-3.0386,-3.0448,-3.0386,-3.0542,-3.0381,-3.0597,-3.0457,-3.0517,-3.0529,-3.054,-3.0559,-3.0382,-3.0672,-3.1139,-3.119,-3.0568,-3.0562,-3.0557,0,-2.9164,-2.9433,-2.9385,-2.9647,-2.9768,-2.9658,-2.9793,-2.9843,-2.9842,-2.9945,-2.9942,-3.0061,-2.9934,-2.9968,-3.0077,-3.0083,-3.0263,-3.0056,-3.0213,-3.0219,-3.0208,-3.0635,-3.0716,-3.1038,-3.0487,-3.0494,-3.05,0,-2.8833,-2.8885,-2.8936,-2.8976,-2.9031,-2.9131,-2.9285,-2.9389,-2.9461,-2.9525,-2.9657,-2.9819,-2.9732,-2.9788,-2.9747,-2.9864,-3.0139,-2.9755,-2.9756,-2.9831,-3.0447,-3.0523,-3.0577,-3.0086,-3.0095,-3.0102,-3.0444,0,-2.8375,-2.8504,-2.8636,-2.8725,-2.8797,-2.8958,-2.8927,-2.9006,-2.8959,-2.8955,-2.9145,-2.9179,-2.9287,-2.9338,-2.9294,-2.9567,-2.9519,-2.9424,-2.9272,-2.9549,-2.9662,-2.9708,-2.9106,-2.9101,-2.9097,-2.9094,0,0,-2.7979,-2.8164,-2.8107,-2.8254,-2.8313,-2.8197,-2.8372,-2.8415,-2.8505,-2.8549,-2.8461,-2.8698,-2.873,-2.8966,-2.9049,-2.9091,-2.9139,-2.9043,-2.9416,-2.9452,-2.9485,-2.9606,-2.9653,-2.9087,-2.9085,-2.9084,-2.9082,0,-2.7806,-2.7837,-2.8009,-2.805,-2.8109,-2.8095,-2.8136,-2.8175,-2.8181,-2.8365,-2.827,-2.838,-2.857,-2.8619,-2.8669,-2.9012,-2.8937,-2.9046,-2.9243,-2.9376,-2.9418,-2.9454,-2.9582,-2.9627,-2.9073,-2.9073,-2.9074,0,-2.7479,-2.7506,-2.7585,-2.7708,-2.7746,-2.7872,-2.7702,-2.7841,-2.7935,-2.7805,-2.7991,-2.8006,-2.8067,-2.8291,-2.839,-2.8314,-2.8756,-2.8609,-2.8634,-2.8646,-2.8775,-2.8824,-2.8868,-2.8288,-2.8285,-2.8282,0,0,-2.7335,-2.7454,-2.7468,-2.7669,-2.7699,-2.7681,-2.7744,-2.7705,-2.776,-2.7784,-2.7803,-2.7861,-2.7971,-2.8046,-2.8147,-2.8396,-2.8407,-2.8514,-2.8551,-2.8581,-2.8611,-2.8747,-2.8796,-2.8273,-2.8272,-2.8272,0,0,-2.7267,-2.729,-2.7233,-2.7462,-2.7517,-2.7546,-2.7671,-2.7603,-2.7691,-2.7669,-2.7611,-2.7625,-2.7833,-2.7852,-2.7724,-2.8093,-2.7941,-2.7971,-2.8074,-2.812,-2.8157,-2.8151,-2.7558,0,0,0,0,0,-2.7076,-2.7287,-2.7235,-2.7268,-2.7424,-2.7574,-2.7594,-2.755,-2.7443,-2.7543,-2.7548,-2.7462,-2.7771,-2.7656,-2.7691,-2.7837,-2.8146,-2.8168,-2.8189,-2.838,-2.8429,-2.847,0,0,0,0,0,0,-2.7089,-2.713,-2.7229,-2.7267,-2.7301,-2.7566,-2.7376,-2.737,-2.7432,-2.7412,-2.7464,-2.7464,-2.7431,-2.7634,-2.7667,-2.7807,-2.7547,-2.8154,-2.8174,-2.8191,-2.8397,-2.8437,-2.8471,0,0,0,0,0,-2.7099,-2.7132,-2.7393,-2.7264,-2.7294,-2.7285,-2.7368,-2.7361,-2.7408,-2.7417,-2.7414,-2.737,-2.7436,-2.746,-2.7654,-2.7794,-2.7524,-2.7536,-2.8167,-2.8182,-2.8195,-2.8417,0,0,0,0,0,0,-2.7106,-2.7128,-2.7398,-2.7406,-2.718,-2.727,-2.7282,-2.7354,-2.7408,-2.7407,-2.7319,-2.7303,-2.7442,-2.746,-2.7479,-2.7791,-2.7505,-2.7518,-2.7525,-2.8178,-2.819,-2.8201,0,0,0,0,0,0,-2.7109,-2.7135,-2.7402,-2.73,-2.7295,-2.7256,-2.7267,-2.7424,-2.741,-2.7306,-2.7294,-2.7311,-2.7413,-2.7461,-2.7475,-2.7723,-2.7491,-2.7503,-2.7511,-2.7516,-2.8188,-2.8197,0,0,0,0,0,0,-2.7119,-2.7141,-2.7297,-2.7294,-2.7289,-2.7371,-2.7394,-2.7557,-2.732,-2.7306,-2.7298,-2.7288,-2.7417,-2.7431,-2.7473,-2.7716,-2.7721,-2.7491,-2.7499,-2.7505,-2.7509,0,0,0,0,0,0,0,-2.7127,-2.6991,-2.7353,-2.7289,-2.7285,-2.7476,-2.7478,-2.748,-2.7318,-2.7309,-2.73,-2.7292,-2.7422,-2.7435,-2.7449,-2.771,0,0,-2.749,-2.7496,0,0,0,0,0,0,0,0,-2.6981,-2.6988,-2.7353,-2.7355,-2.7356,-2.7476,-2.7478,-2.748,-2.7316,-2.7309,-2.7302,-2.7295,-2.7426,-2.7436,-2.7447,0,0,0,0,0,0,0,0,0,0,0,0,0,0,0,-2.7353,-2.7355,0,-2.7476,-2.7478,-2.7479,-2.7315,-2.7309,-2.7304,-2.7298,-2.7429,-2.7438,-2.7446,0,0,0,0,0,0,0,0,0,0,0,0,0,0,0,0,0,0,0,0,0,0,0,0,0,0,0,0,0,0,0,0,0,0,0,0,0,0,0,0,0,0,0,0,0,0,0,0,0,0,0,0,0,0,0,0,0,0,0,0,0,0,0,0,0,0,0,0,0]}],[{"header":{"parameterUnit":"kt","parameterCategory":2,"dx":1,"dy":1,"la1":30.253999710083008,"la2":30.299108505249023,"lo1":-89.0895004272461,"lo2":-89.04439544677734,"nx":28,"ny":28,"refTime":"2022-10-01T21:00:00:Z","depth":0,"parameterNumber":2,"parameterNumberName":"V-component_of_WINDS"},"data":[-10.3115,-10.3327,-10.3345,-10.3593,-10.365,-10.3821,-10.3887,-10.3972,-10.4044,-10.4246,-10.4363,-10.4398,-10.4472,-10.4612,-10.4737,-10.4748,-10.4799,-10.4862,-10.4864,-10.4573,-10.4533,-10.4495,-10.4447,-10.4874,-10.4874,-10.5162,-10.5165,-10.5167,-10.2898,-10.2958,-10.3096,-10.324,-10.3357,-10.3307,-10.3415,-10.3514,-10.3667,-10.3757,-10.3874,-10.4051,-10.419,-10.4243,-10.4379,-10.4472,-10.4454,-10.4508,-10.4499,-10.4511,-10.4201,-10.415,-10.452,-10.452,-10.452,-10.452,-10.452,-10.452,-10.2507,-10.2635,-10.2733,-10.2881,-10.2958,-10.3054,-10.3175,-10.3218,-10.3349,-10.3497,-10.3488,-10.3659,-10.3748,-10.3918,-10.3977,-10.4107,-10.4049,-10.4111,-10.4126,-10.4141,-10.4156,-10.3734,-10.4131,-10.4129,-10.4129,-10.4128,-10.4127,0,-10.2226,-10.2233,-10.2366,-10.2505,-10.2613,-10.2721,-10.2821,-10.2897,-10.291,-10.3017,-10.3173,-10.3264,-10.3443,-10.3587,-10.3716,-10.3765,-10.3718,-10.3715,-10.3757,-10.3763,-10.3752,-10.3758,-10.325,-10.3703,-10.3699,-10.3697,-10.3695,-10.3693,-10.1831,-10.1978,-10.2089,-10.218,-10.2239,-10.2385,-10.2475,-10.2476,-10.257,-10.2691,-10.28,-10.2946,-10.3063,-10.3305,-10.3346,-10.3478,-10.3455,-10.3626,-10.3474,-10.3475,-10.3455,-10.3446,-10.3459,-10.3655,-10.366,-10.3664,-10.3667,0,-10.1607,-10.1635,-10.1867,-10.1961,-10.1988,-10.214,-10.2218,-10.2342,-10.2368,-10.2542,-10.2582,-10.2621,-10.2771,-10.2786,-10.2959,-10.296,-10.3203,-10.3179,-10.3172,-10.3167,-10.332,-10.3305,-10.3819,-10.3885,-10.3445,-10.3449,-10.3453,0,-10.128,-10.1472,-10.1501,-10.1634,-10.1846,-10.1843,-10.2051,-10.2094,-10.2173,-10.231,-10.2262,-10.2391,-10.2389,-10.2518,-10.2522,-10.2722,-10.2755,-10.2767,-10.2765,-10.2771,-10.2769,-10.2817,-10.2795,-10.2758,-10.2756,-10.2753,-10.2751,0,-10.0924,-10.1165,-10.1382,-10.144,-10.1558,-10.1659,-10.1712,-10.18,-10.1887,-10.2001,-10.2056,-10.2188,-10.226,-10.2361,-10.2364,-10.226,-10.261,-10.2468,-10.2622,-10.2623,-10.2697,-10.2692,-10.3147,-10.2748,-10.2747,-10.2746,-10.2745,0,-10.0663,-10.0784,-10.1095,-10.1191,-10.1254,-10.1396,-10.1528,-10.1653,-10.1749,-10.1761,-10.185,-10.1819,-10.1998,-10.1855,-10.2099,-10.1963,-10.2035,-10.2064,-10.2075,-10.209,-10.1929,-10.2181,-10.2614,-10.2659,-10.2105,-10.21,-10.2095,0,-10.0247,-10.0568,-10.0569,-10.0863,-10.1013,-10.0951,-10.1107,-10.1194,-10.1225,-10.1353,-10.1383,-10.1529,-10.1426,-10.1473,-10.1592,-10.1628,-10.1806,-10.1605,-10.1782,-10.1789,-10.1758,-10.2158,-10.2218,-10.2518,-10.2027,-10.2034,-10.204,0,-9.9927,-10.0073,-10.0125,-10.0191,-10.031,-10.0435,-10.0615,-10.0761,-10.0846,-10.095,-10.1098,-10.1303,-10.1233,-10.1312,-10.1299,-10.1423,-10.1685,-10.133,-10.1332,-10.1392,-10.1995,-10.2051,-10.2102,-10.1649,-10.1657,-10.1664,-10.1986,0,-9.9523,-9.9688,-9.9832,-9.9981,-10.0081,-10.0266,-10.0286,-10.0386,-10.0366,-10.0393,-10.0612,-10.0686,-10.083,-10.0892,-10.0872,-10.1152,-10.1106,-10.103,-10.089,-10.1153,-10.1259,-10.1302,-10.073,-10.0726,-10.0723,-10.072,0,0,-9.9117,-9.9354,-9.9348,-9.9526,-9.9609,-9.9541,-9.9737,-9.9809,-9.9957,-10.0014,-9.9937,-10.0237,-10.03,-10.0563,-10.0646,-10.0705,-10.0755,-10.0663,-10.1028,-10.1062,-10.1094,-10.1208,-10.1253,-10.0714,-10.0713,-10.0712,-10.0711,0,-9.8973,-9.9047,-9.9243,-9.9319,-9.9431,-9.9451,-9.9499,-9.9596,-9.9622,-9.9839,-9.9776,-9.9908,-10.0149,-10.0223,-10.0292,-10.0633,-10.0575,-10.0676,-10.0853,-10.0994,-10.1032,-10.1067,-10.1186,-10.1229,-10.0702,-10.0703,-10.0703,0,-9.8661,-9.8735,-9.8833,-9.9022,-9.9094,-9.925,-9.9109,-9.928,-9.9394,-9.9306,-9.9521,-9.9564,-9.9665,-9.9913,-10.0024,-9.9957,-10.0411,-10.0271,-10.0292,-10.0304,-10.0441,-10.0487,-10.0529,-9.9981,-9.9978,-9.9976,0,0,-9.8533,-9.8687,-9.8766,-9.8992,-9.9042,-9.9075,-9.916,-9.9148,-9.9244,-9.9282,-9.9336,-9.9428,-9.9566,-9.9658,-9.9789,-10.0059,-10.0078,-10.0181,-10.0215,-10.0243,-10.027,-10.0414,-10.046,-9.9966,-9.9966,-9.9966,0,0,-9.8471,-9.8573,-9.8537,-9.8803,-9.8897,-9.8987,-9.9123,-9.9079,-9.92,-9.918,-9.9165,-9.9189,-9.9421,-9.9465,-9.9334,-9.9738,-9.96,-9.9632,-9.9701,-9.9744,-9.9778,-9.9761,-9.9196,0,0,0,0,0,-9.8334,-9.856,-9.8527,-9.8574,-9.8811,-9.9006,-9.9036,-9.9031,-9.8934,-9.9042,-9.9079,-9.9013,-9.9391,-9.9274,-9.9319,-9.9465,-9.9841,-9.9864,-9.9884,-10.0038,-10.0083,-10.0121,0,0,0,0,0,0,-9.8353,-9.8411,-9.852,-9.862,-9.8673,-9.8998,-9.8832,-9.8836,-9.8922,-9.8907,-9.9008,-9.9017,-9.9013,-9.925,-9.9291,-9.943,-9.9183,-9.985,-9.9869,-9.9886,-10.0053,-10.009,-10.0121,0,0,0,0,0,-9.8368,-9.8415,-9.8797,-9.8617,-9.8663,-9.8711,-9.8823,-9.8826,-9.8891,-9.8951,-9.8957,-9.888,-9.9018,-9.9051,-9.9275,-9.9412,-9.9154,-9.917,-9.9862,-9.9877,-9.989,-10.0071,0,0,0,0,0,0,-9.8379,-9.8417,-9.8806,-9.882,-9.8532,-9.8692,-9.8718,-9.8817,-9.8929,-9.8938,-9.8821,-9.8807,-9.9024,-9.9048,-9.9075,-9.9406,-9.9131,-9.9147,-9.9156,-9.9874,-9.9885,-9.9895,0,0,0,0,0,0,-9.8392,-9.8429,-9.8813,-9.8706,-9.8708,-9.8676,-9.8698,-9.8886,-9.8932,-9.8793,-9.8785,-9.8813,-9.8982,-9.9048,-9.9068,-9.9362,-9.9114,-9.9128,-9.9139,-9.9145,-9.9883,-9.9892,0,0,0,0,0,0,-9.8407,-9.844,-9.8702,-9.8704,-9.8704,-9.8857,-9.8841,-9.9083,-9.8844,-9.8788,-9.8822,-9.8812,-9.8983,-9.9003,-9.9064,-9.9349,-9.9358,-9.9114,-9.9124,-9.9131,-9.9136,0,0,0,0,0,0,0,-9.842,-9.8206,-9.8726,-9.8702,-9.8702,-9.8947,-9.8951,-9.8954,-9.8842,-9.8833,-9.8825,-9.8816,-9.9029,-9.9045,-9.9062,-9.9339,0,0,-9.9113,-9.912,0,0,0,0,0,0,0,0,-9.8192,-9.8203,-9.8726,-9.8729,-9.8732,-9.8947,-9.895,-9.8953,-9.8841,-9.8833,-9.8826,-9.882,-9.9033,-9.9046,-9.906,0,0,0,0,0,0,0,0,0,0,0,0,0,0,0,-9.8726,-9.8729,0,-9.8948,-9.895,-9.8953,-9.884,-9.8834,-9.8828,-9.8822,-9.9037,-9.9048,-9.9059,0,0,0,0,0,0,0,0,0,0,0,0,0,0,0,0,0,0,0,0,0,0,0,0,0,0,0,0,0,0,0,0,0,0,0,0,0,0,0,0,0,0,0,0,0,0,0,0,0,0,0,0,0,0,0,0,0,0,0,0,0,0,0,0,0,0,0,0,0]}]]]